Weather History for Chipley, FL

Change the Weather History Date:

Sunday, June 30, 2013

  Actual Average (KMAI) Record (KMAI)
Temperature  
Mean Temperature 85 °F 82 °F  
Max Temperature 93 °F 92 °F 102 °F (1998)
Min Temperature 77 °F 71 °F 69 °F (2006)
Degree Days  
Heating Degree Days 0    
Month to date heating degree days  
Since 1 June heating degree days  
Since 1 July heating degree days  
Cooling Degree Days 20    
Month to date cooling degree days  
Year to date cooling degree days  
Since 1 June cooling degree days  
Growing Degree Days 35 (Base 50)    
Moisture  
Dew Point 64 °F    
Average Humidity 52    
Maximum Humidity 78    
Minimum Humidity 28    
Precipitation  
Precipitation 0.00 in 0.18 in 2.12 in (2010)
Month to date precipitation 5.57  
Year to date precipitation 27.79  
Sea Level Pressure  
Sea Level Pressure 29.77 in    
Wind  
Wind Speed 3 mph (NW)    
Max Wind Speed 12 mph    
Max Gust Speed 20 mph    
Visibility 10 miles    
Events      
T = Trace of Precipitation, MM = Missing Value Source: NWS Daily Summary

Daily Weather History Graph

Daily Weather History Graph

Search for Another Location

Airport:

Trip Planner

Search our weather history database for the weather conditions in past years. The results will help you decide how hot, cold, wet, or windy it might be!

Date:

Astronomy

Jun. 30, 2013 Rise Set
Actual Time 5:42 AM CDT 7:49 PM CDT
Civil Twilight 5:15 AM CDT 8:17 PM CDT
Nautical Twilight 4:41 AM CDT 8:50 PM CDT
Astronomical Twilight 4:05 AM CDT 9:26 PM CDT
Moon 12:21 AM CDT (6/30) 1:20 PM CDT (6/30)
Length of Visible Light 15h 02m
Length of Day
14h 06m
Last Quarter, 45% of the Moon is Illuminated
Jun 30
Last Quarter
Jul 8
New
Jul 15
First Quarter
Jul 22
Full
Jul 29
Last Quarter

Hourly Weather History & Observations

Time (CDT) Temp. Heat Index Dew Point Humidity Pressure Visibility Wind Dir Wind Speed Gust Speed Precip Events Conditions
12:15 AM 78.8 °F - 71.6 °F 78% 29.78 in 10.0 mi North 6.9 mph 17.3 mph N/A   Mostly Cloudy
12:35 AM 77.0 °F - 69.8 °F 78% 29.78 in 10.0 mi East 3.5 mph - N/A   Mostly Cloudy
12:55 AM 78.8 °F - 69.8 °F 74% 29.77 in 10.0 mi Calm Calm - N/A   Mostly Cloudy
1:15 AM 78.8 °F - 69.8 °F 74% 29.75 in 10.0 mi Calm Calm - N/A   Scattered Clouds
1:35 AM 78.8 °F - 69.8 °F 74% 29.76 in 10.0 mi Calm Calm - N/A   Partly Cloudy
1:55 AM 78.8 °F - 69.8 °F 74% 29.75 in 10.0 mi Calm Calm - N/A   Clear
2:15 AM 78.8 °F - 69.8 °F 74% 29.75 in 10.0 mi Calm Calm - N/A   Unknown
2:35 AM 78.8 °F - 69.8 °F 74% 29.73 in 10.0 mi Calm Calm - N/A   Mostly Cloudy
2:55 AM 78.8 °F - 69.8 °F 74% 29.73 in 10.0 mi Calm Calm - N/A   Mostly Cloudy
3:15 AM 80.6 °F 84.6 °F 71.6 °F 74% 29.73 in 10.0 mi Calm Calm - N/A   Partly Cloudy
3:35 AM 80.6 °F 84.6 °F 71.6 °F 74% 29.74 in 10.0 mi Calm Calm - N/A   Partly Cloudy
3:55 AM 80.6 °F 84.6 °F 71.6 °F 74% 29.74 in 10.0 mi Calm Calm - N/A   Clear
4:15 AM 80.6 °F 84.6 °F 71.6 °F 74% 29.74 in 10.0 mi Calm Calm - N/A   Clear
4:35 AM 80.6 °F 83.9 °F 69.8 °F 70% 29.75 in 10.0 mi North 3.5 mph - N/A   Clear
4:55 AM 80.6 °F 83.9 °F 69.8 °F 70% 29.75 in 10.0 mi North 3.5 mph - N/A   Clear
5:15 AM 80.6 °F 83.9 °F 69.8 °F 70% 29.75 in 10.0 mi North 3.5 mph - N/A   Clear
5:35 AM 80.6 °F 83.9 °F 69.8 °F 70% 29.75 in 10.0 mi Calm Calm - N/A   Clear
5:55 AM 80.6 °F 83.9 °F 69.8 °F 70% 29.75 in 10.0 mi Calm Calm - N/A   Clear
6:15 AM 80.6 °F 83.9 °F 69.8 °F 70% 29.75 in 10.0 mi Calm Calm - N/A   Clear
6:35 AM 80.6 °F 83.2 °F 68.0 °F 65% 29.75 in 10.0 mi Calm Calm - N/A   Clear
6:55 AM 80.6 °F 83.2 °F 68.0 °F 65% 29.76 in 10.0 mi Calm Calm - N/A   Clear
7:15 AM 80.6 °F 83.9 °F 69.8 °F 70% 29.77 in 10.0 mi Calm Calm - N/A   Clear
7:35 AM 80.6 °F 83.2 °F 68.0 °F 65% 29.78 in 10.0 mi Calm Calm - N/A   Clear
7:55 AM 82.4 °F 86.3 °F 69.8 °F 66% 29.78 in 10.0 mi Calm Calm - N/A   Clear
8:15 AM 82.4 °F 86.3 °F 69.8 °F 66% 29.79 in 10.0 mi Calm Calm - N/A   Clear
8:35 AM 82.4 °F 86.3 °F 69.8 °F 66% 29.78 in 10.0 mi Calm Calm - N/A   Clear
8:55 AM 82.4 °F 86.3 °F 69.8 °F 66% 29.78 in 10.0 mi Calm Calm - N/A   Clear
9:15 AM 82.4 °F 85.4 °F 68.0 °F 62% 29.78 in 10.0 mi Calm Calm - N/A   Clear
9:35 AM 84.2 °F 87.3 °F 68.0 °F 58% 29.78 in 10.0 mi NNW 3.5 mph - N/A   Clear
9:55 AM 84.2 °F 86.6 °F 66.2 °F 55% 29.78 in 10.0 mi WNW 3.5 mph - N/A   Clear
10:15 AM 84.2 °F 86.6 °F 66.2 °F 55% 29.78 in 10.0 mi NW 4.6 mph - N/A   Clear
10:35 AM 87.8 °F 90.4 °F 66.2 °F 49% 29.78 in 10.0 mi West 3.5 mph - N/A   Clear
10:55 AM 89.6 °F 92.2 °F 66.2 °F 46% 29.78 in 10.0 mi NW 3.5 mph - N/A   Clear
11:15 AM 89.6 °F 91.1 °F 64.4 °F 43% 29.79 in 10.0 mi NW 5.8 mph - N/A   Clear
11:35 AM 89.6 °F 90.1 °F 62.6 °F 40% 29.79 in 10.0 mi NNW 4.6 mph - N/A   Clear
11:55 AM 91.4 °F 91.4 °F 60.8 °F 36% 29.78 in 10.0 mi NW 4.6 mph - N/A   Clear
12:15 PM 89.6 °F 89.5 °F 60.8 °F 38% 29.78 in 10.0 mi NW 6.9 mph - N/A   Clear
12:35 PM 91.4 °F 91.4 °F 60.8 °F 36% 29.77 in 10.0 mi WNW 9.2 mph - N/A   Clear
12:55 PM 91.4 °F 91.4 °F 60.8 °F 36% 29.76 in 10.0 mi NW 6.9 mph - N/A   Partly Cloudy
1:15 PM 89.6 °F 89.5 °F 60.8 °F 38% 29.77 in 10.0 mi WNW 4.6 mph - N/A   Mostly Cloudy
1:35 PM 89.6 °F 90.1 °F 62.6 °F 40% 29.77 in 10.0 mi WNW 5.8 mph - N/A   Overcast
1:55 PM 89.6 °F 89.5 °F 60.8 °F 38% 29.76 in 10.0 mi WNW 4.6 mph - N/A   Overcast
2:15 PM 89.6 °F 90.1 °F 62.6 °F 40% 29.76 in 10.0 mi West 5.8 mph - N/A   Overcast
2:35 PM 91.4 °F 92.1 °F 62.6 °F 38% 29.75 in 10.0 mi SW 3.5 mph - N/A   Scattered Clouds
2:55 PM 93.2 °F 94.9 °F 64.4 °F 38% 29.75 in 10.0 mi West 5.8 mph - N/A   Mostly Cloudy
3:15 PM 91.4 °F 93.2 °F 64.4 °F 41% 29.75 in 10.0 mi West 3.5 mph - N/A   Mostly Cloudy
3:35 PM 91.4 °F 92.1 °F 62.6 °F 38% 29.75 in 10.0 mi Calm Calm - N/A   Mostly Cloudy
3:55 PM 91.4 °F 90.7 °F 59.0 °F 34% 29.75 in 10.0 mi NW 9.2 mph 16.1 mph N/A   Overcast
4:15 PM 93.2 °F 91.3 °F 55.4 °F 28% 29.74 in 10.0 mi NNW 6.9 mph 18.4 mph N/A   Mostly Cloudy
4:35 PM 93.2 °F 91.9 °F 57.2 °F 30% 29.74 in 10.0 mi NW 11.5 mph 19.6 mph N/A   Partly Cloudy
4:55 PM 93.2 °F 91.9 °F 57.2 °F 30% 29.74 in 10.0 mi NW 10.4 mph 19.6 mph N/A   Clear
5:15 PM 93.2 °F 91.9 °F 57.2 °F 30% 29.74 in 10.0 mi North 9.2 mph 16.1 mph N/A   Clear
5:35 PM 91.4 °F 89.9 °F 57.2 °F 31% 29.74 in 10.0 mi WNW 8.1 mph 17.3 mph N/A   Clear
5:55 PM 91.4 °F 89.9 °F 57.2 °F 31% 29.75 in 10.0 mi NW 6.9 mph 17.3 mph N/A   Clear
6:15 PM 91.4 °F 89.9 °F 57.2 °F 31% 29.75 in 10.0 mi WNW 5.8 mph 17.3 mph N/A   Clear
6:35 PM 91.4 °F 89.4 °F 55.4 °F 29% 29.75 in 10.0 mi NW 4.6 mph - N/A   Clear
6:55 PM 89.6 °F 88.9 °F 59.0 °F 36% 29.75 in 10.0 mi NNW 6.9 mph - N/A   Clear
7:15 PM 89.6 °F 88.9 °F 59.0 °F 36% 29.75 in 10.0 mi NW 9.2 mph - N/A   Clear
7:35 PM 89.6 °F 88.1 °F 57.2 °F 33% 29.76 in 10.0 mi NW 6.9 mph 16.1 mph N/A   Clear
7:55 PM 87.8 °F 86.5 °F 57.2 °F 35% 29.76 in 10.0 mi NNW 4.6 mph - N/A   Clear
8:15 PM 87.8 °F 87.1 °F 59.0 °F 38% 29.77 in 10.0 mi NW 6.9 mph - N/A   Clear
8:35 PM 87.8 °F 86.5 °F 57.2 °F 35% 29.77 in 10.0 mi North 5.8 mph - N/A   Clear
8:55 PM 87.8 °F 86.5 °F 57.2 °F 35% 29.78 in 10.0 mi NNW 5.8 mph - N/A   Clear
9:15 PM 87.8 °F 87.1 °F 59.0 °F 38% 29.78 in 10.0 mi NW 4.6 mph - N/A   Clear
9:35 PM 87.8 °F 87.6 °F 60.8 °F 40% 29.79 in 10.0 mi NNW 4.6 mph - N/A   Clear
9:55 PM 86.0 °F 86.1 °F 60.8 °F 43% 29.80 in 10.0 mi North 4.6 mph - N/A   Clear
10:15 PM 84.2 °F 84.4 °F 60.8 °F 45% 29.80 in 10.0 mi North 5.8 mph - N/A   Clear
10:35 PM 84.2 °F 85.0 °F 62.6 °F 48% 29.81 in 10.0 mi North 3.5 mph - N/A   Clear
10:55 PM 84.2 °F 85.0 °F 62.6 °F 48% 29.81 in 10.0 mi NNE 4.6 mph - N/A   Clear
11:15 PM 84.2 °F 85.0 °F 62.6 °F 48% 29.81 in 10.0 mi North 4.6 mph - N/A   Clear
11:35 PM 84.2 °F 85.0 °F 62.6 °F 48% 29.81 in 10.0 mi NNE 5.8 mph - N/A   Clear
11:55 PM 82.4 °F 83.4 °F 62.6 °F 51% 29.82 in 10.0 mi North 4.6 mph - N/A   Clear